Opa Locka, FL

6:47 AM EDT on September 25, 2017 (GMT -0400)
Opa Locka

Weather History for KOPF - April, 2013

Change the Weather History Date:

Friday, April 5, 2013

  Actual Average Record
Temperature  
Mean Temperature 70 °F -  
Max Temperature 73 °F 81 °F 91 °F (2011)
Min Temperature 66 °F 66 °F 44 °F (1951)
Cooling Degree Days 4    
Growing Degree Days 20 (Base 50)    
Moisture  
Dew Point 65 °F    
Average Humidity 90    
Maximum Humidity 96    
Minimum Humidity 78    
Precipitation  
Precipitation 1.02 in - - ()
Sea Level Pressure  
Sea Level Pressure 29.93 in    
Wind  
Wind Speed 7 mph (West)    
Max Wind Speed 20 mph    
Max Gust Speed 26 mph    
Visibility 9 miles    
Events Rain , Thunderstorm    
Averages and records for this station are not official NWS values.
T = Trace of Precipitation, MM = Missing Value Source: NWS Daily Summary

Daily Weather History Graph

Daily Weather History Graph

Search for Another Location

Airport or City:

Trip Planner

Search our weather history database for the weather conditions in past years. The results will help you decide how hot, cold, wet, or windy it might be!

Date:

Astronomy

Apr. 05, 2013 Rise Set
Actual Time 7:07 AM EDT 7:39 PM EDT
Civil Twilight 6:44 AM EDT 8:03 PM EDT
Nautical Twilight 6:17 AM EDT 8:30 PM EDT
Astronomical Twilight 5:49 AM EDT 8:58 PM EDT
Moon 3:46 AM EDT (4/5) 3:27 PM EDT (4/5)
Length of Visible Light 13h 18m
Length of Day
12h 32m
Waning Crescent, 24% of the Moon is Illuminated
Apr 5
Waning Crescent
Apr 10
New
Apr 18
First Quarter
Apr 25
Full
May 2
Last Quarter

Hourly Weather History & Observations

Time (EDT) Temp. Dew Point Humidity Pressure Visibility Wind Dir Wind Speed Gust Speed Precip Events Conditions
12:25 AM 73.4 °F 69.8 °F 88% 29.99 in 10.0 mi Calm Calm - N/A   Mostly Cloudy
12:53 AM 73.9 °F 70.0 °F 87% 29.99 in 10.0 mi NNW 4.6 mph - N/A   Overcast
1:53 AM 73.0 °F 70.0 °F 90% 29.95 in 10.0 mi NW 11.5 mph - N/A   Overcast
2:04 AM 71.6 °F 68.0 °F 88% 29.95 in 10.0 mi WNW 11.5 mph - 0.00 in Rain Light Rain
2:17 AM 69.8 °F 66.2 °F 88% 29.95 in 10.0 mi NW 19.6 mph 26.5 mph 0.01 in Rain Light Rain
2:22 AM 69.8 °F 66.2 °F 88% 29.94 in 10.0 mi NNW 17.3 mph 26.5 mph 0.02 in Rain Light Rain
2:31 AM 66.2 °F 64.4 °F 94% 29.95 in 10.0 mi NNW 12.7 mph 25.3 mph 0.03 in Rain , Thunderstorm Light Rain
2:53 AM 66.9 °F 64.0 °F 90% 30.00 in 3.0 mi Variable 5.8 mph - 0.22 in Rain , Thunderstorm Heavy Thunderstorms and Rain
3:11 AM 66.2 °F 64.4 °F 94% 29.98 in 10.0 mi NW 8.1 mph - 0.08 in Rain , Thunderstorm Light Thunderstorms and Rain
3:53 AM 66.9 °F 64.0 °F 90% 29.98 in 10.0 mi Calm Calm - 0.10 in Rain , Thunderstorm Light Rain
4:23 AM 66.2 °F 64.4 °F 94% 29.99 in 10.0 mi Calm Calm - 0.03 in Rain Rain
4:53 AM 66.9 °F 64.9 °F 93% 29.99 in 7.0 mi NNW 5.8 mph - 0.14 in Rain Rain
5:53 AM 66.0 °F 64.9 °F 96% 29.97 in 10.0 mi SSE 3.5 mph - 0.03 in Rain Light Rain
6:53 AM 66.9 °F 64.9 °F 93% 29.96 in 10.0 mi ENE 5.8 mph - 0.00 in   Overcast
7:53 AM 66.9 °F 64.9 °F 93% 29.94 in 10.0 mi SSE 6.9 mph - 0.00 in   Mostly Cloudy
8:53 AM 69.1 °F 66.0 °F 90% 29.91 in 10.0 mi SSE 10.4 mph - N/A   Clear
9:53 AM 72.0 °F 66.0 °F 81% 29.94 in 10.0 mi SSE 11.5 mph - N/A   Clear
10:53 AM 73.0 °F 68.0 °F 84% 29.96 in 10.0 mi NW 6.9 mph - 0.00 in Rain Light Rain
11:53 AM 72.0 °F 66.9 °F 84% 29.97 in 10.0 mi WNW 6.9 mph - 0.01 in   Partly Cloudy
12:53 PM 71.1 °F 64.9 °F 81% 29.92 in 10.0 mi West 3.5 mph - 0.02 in Rain Light Rain
1:53 PM 72.0 °F 64.9 °F 78% 29.92 in 10.0 mi SW 8.1 mph - 0.00 in   Overcast
2:53 PM 71.1 °F 64.9 °F 81% 29.92 in 10.0 mi West 10.4 mph - N/A   Overcast
3:28 PM 66.2 °F 64.4 °F 94% 29.93 in 2.0 mi WSW 16.1 mph - 0.14 in Rain Heavy Rain
3:53 PM 66.9 °F 64.9 °F 93% 29.90 in 2.0 mi WSW 9.2 mph - 0.25 in Rain Rain
4:12 PM 66.2 °F 64.4 °F 94% 29.88 in 10.0 mi SW 9.2 mph - 0.01 in Rain Light Rain
4:53 PM 66.0 °F 64.0 °F 93% 29.89 in 2.0 mi South 10.4 mph - 0.07 in Rain Rain
5:53 PM 66.0 °F 64.0 °F 93% 29.84 in 2.0 mi Calm Calm - 0.17 in Rain Light Rain
6:53 PM 66.0 °F 64.0 °F 93% 29.86 in 10.0 mi Variable 4.6 mph - 0.01 in   Clear
7:53 PM 66.9 °F 64.0 °F 90% 29.87 in 10.0 mi West 5.8 mph - N/A   Clear
8:28 PM 66.2 °F 64.4 °F 94% 29.88 in 10.0 mi WSW 6.9 mph - N/A   Mostly Cloudy
8:37 PM 66.2 °F 64.4 °F 94% 29.88 in 10.0 mi WSW 4.6 mph - N/A   Scattered Clouds
8:53 PM 66.0 °F 64.0 °F 93% 29.89 in 10.0 mi WSW 4.6 mph - N/A   Clear
9:53 PM 66.0 °F 64.9 °F 96% 29.92 in 10.0 mi WSW 4.6 mph - N/A   Scattered Clouds
10:53 PM 68.0 °F 64.9 °F 90% 29.94 in 10.0 mi West 8.1 mph - N/A   Overcast
11:53 PM 66.9 °F 64.0 °F 90% 29.95 in 10.0 mi West 8.1 mph - N/A   Overcast